Location: Newark
(44.1667°N, 8.2500°E)
Time: 18:25:20
(UTC+00:00)

Envisat - Pass Details

Date: 20 November 2019
Orbit: 764 x 766 km, 98.1° (Epoch: 10 December)

Event Time Altitude Azimuth Distance (km) Brightness Sun altitude
Rises 05:22:26 0° 25° (NNE) 3,241 6.4 -11.8°
Reaches altitude 10° 05:25:10 10° 39° (NE) 2,309 5.8 -11.3°
Maximum altitude 05:29:18 24° 93° (E) 1,529 5.6 -10.6°
Drops below altitude 10° 05:33:23 10° 147° (SSE) 2,295 6.3 -9.9°
Sets 05:36:04 0° 161° (SSE) 3,215 6.8 -9.5°
